When you browse on this site, cookies collect data to enhance your experience and personalize the content and advertising you see.
Visit our Privacy Policy to learn more. By continuing to use the site, you agree to this use of cookies and data.
  • In Sweden
  • List of Countries
  • For 7 days
  • Water Temperature
  • Weather Map
  • Weather Widgets
  • user-avatar
    Login

    Hourly Weather Perth

    Today, 18 October, Friday

    Time Temperature Precipitation Wind Pressure Humidity
    00:00 +13°C° 0 mm 4 mps 763 mmHg 84%
    01:00 +13°C° 0 mm 4 mps 763 mmHg 84%
    02:00 +13°C° 0 mm 4 mps 763 mmHg 82%
    03:00 +12°C° 0 mm 4 mps 763 mmHg 82%
    04:00 +12°C° 0 mm 4 mps 763 mmHg 83%
    05:00 +11°C° 0 mm 4 mps 764 mmHg 83%
    06:00 +12°C° 0 mm 4 mps 764 mmHg 77%
    07:00 +13°C° 0 mm 4 mps 764 mmHg 72%
    08:00 +14°C° 0 mm 5 mps 765 mmHg 66%
    09:00 +17°C° 0 mm 4 mps 764 mmHg 59%
    10:00 +19°C° 0 mm 4 mps 764 mmHg 52%
    11:00 +22°C° 0 mm 3 mps 764 mmHg 45%
    12:00 +22°C° 0 mm 3 mps 763 mmHg 41%
    13:00 +24°C° 0 mm 3 mps 762 mmHg 38%
    14:00 +25°C° 0 mm 4 mps 762 mmHg 34%
    15:00 +25°C° 0 mm 4 mps 762 mmHg 36%
    16:00 +23°C° 0 mm 4 mps 762 mmHg 37%
    17:00 +23°C° 0 mm 5 mps 761 mmHg 39%
    18:00 +22°C° 0 mm 5 mps 762 mmHg 40%
    19:00 +20°C° 0 mm 5 mps 762 mmHg 42%
    20:00 +19°C° 0 mm 5 mps 763 mmHg 43%
    21:00 +19°C° 0 mm 6 mps 763 mmHg 44%
    22:00 +17°C° 0 mm 6 mps 763 mmHg 45%
    23:00 +17°C° 0 mm 7 mps 763 mmHg 46%

    Tomorrow, 19 October, Saturday

    Time Temperature Precipitation Wind Pressure Humidity
    00:00 +16°C° 0 mm 7 mps 763 mmHg 51%
    01:00 +15°C° 0 mm 8 mps 762 mmHg 56%
    02:00 +13°C° 0 mm 8 mps 762 mmHg 61%
    03:00 +12°C° 0 mm 8 mps 762 mmHg 61%
    04:00 +12°C° 0 mm 8 mps 763 mmHg 62%
    05:00 +12°C° 0 mm 8 mps 763 mmHg 62%
    06:00 +13°C° 0 mm 8 mps 763 mmHg 59%
    07:00 +15°C° 0 mm 8 mps 763 mmHg 57%
    08:00 +16°C° 0 mm 7 mps 762 mmHg 54%
    09:00 +18°C° 0 mm 7 mps 762 mmHg 49%
    10:00 +22°C° 0 mm 6 mps 762 mmHg 44%
    11:00 +26°C° 0 mm 6 mps 761 mmHg 40%
    12:00 +27°C° 0 mm 5 mps 761 mmHg 37%
    13:00 +29°C° 0 mm 5 mps 760 mmHg 35%
    14:00 +30°C° 0 mm 4 mps 759 mmHg 32%
    15:00 +30°C° 0 mm 4 mps 758 mmHg 33%
    16:00 +30°C° 0 mm 3 mps 758 mmHg 34%
    17:00 +30°C° 0 mm 3 mps 758 mmHg 34%
    18:00 +29°C° 0 mm 3 mps 758 mmHg 36%
    19:00 +27°C° 0 mm 4 mps 758 mmHg 39%
    20:00 +25°C° 0 mm 4 mps 758 mmHg 41%
    21:00 +25°C° 0 mm 4 mps 758 mmHg 40%
    22:00 +25°C° 0 mm 5 mps 758 mmHg 39%
    23:00 +23°C° 0 mm 5 mps 758 mmHg 38%

    Day after tomorrow, 20 October, Sunday

    Time Temperature Precipitation Wind Pressure Humidity
    00:00 +22°C° 0 mm 4 mps 758 mmHg 40%
    01:00 +21°C° 0 mm 4 mps 757 mmHg 42%
    02:00 +20°C° 0 mm 3 mps 757 mmHg 44%
    03:00 +20°C° 0 mm 3 mps 757 mmHg 45%
    04:00 +19°C° 0 mm 3 mps 757 mmHg 46%
    05:00 +18°C° 0 mm 3 mps 757 mmHg 48%
    06:00 +19°C° 0 mm 4 mps 757 mmHg 53%
    07:00 +20°C° 0 mm 4 mps 757 mmHg 58%
    08:00 +21°C° 0 mm 5 mps 758 mmHg 63%
    09:00 +23°C° 0 mm 6 mps 758 mmHg 59%
    10:00 +24°C° 0 mm 6 mps 758 mmHg 55%
    11:00 +27°C° 0 mm 7 mps 758 mmHg 51%
    12:00 +27°C° 0 mm 7 mps 758 mmHg 52%
    13:00 +27°C° 0 mm 7 mps 758 mmHg 52%
    14:00 +26°C° 0 mm 7 mps 758 mmHg 53%
    15:00 +24°C° 0 mm 6 mps 758 mmHg 58%
    16:00 +23°C° 0 mm 6 mps 759 mmHg 63%
    17:00 +22°C° 0 mm 5 mps 759 mmHg 69%
    18:00 +21°C° 0 mm 4 mps 759 mmHg 75%
    19:00 +20°C° 0 mm 3 mps 760 mmHg 82%
    20:00 +19°C° 0 mm 3 mps 760 mmHg 88%
    21:00 +18°C° 0 mm 2 mps 760 mmHg 88%
    22:00 +18°C° 0 mm 2 mps 760 mmHg 87%
    23:00 +18°C° 0 mm 2 mps 760 mmHg 87%

    21 October, Monday

    Time Temperature Precipitation Wind Pressure Humidity
    00:00 +18°C° 0 mm 2 mps 760 mmHg 86%
    01:00 +18°C° 0 mm 2 mps 760 mmHg 86%
    02:00 +18°C° 0 mm 2 mps 760 mmHg 86%
    03:00 +18°C° 0 mm 2 mps 760 mmHg 85%
    04:00 +18°C° 0 mm 2 mps 760 mmHg 85%
    05:00 +19°C° 0 mm 1 mps 761 mmHg 84%
    06:00 +19°C° 0 mm 1 mps 761 mmHg 81%
    07:00 +20°C° 0 mm 1 mps 761 mmHg 78%
    08:00 +20°C° 0 mm 1 mps 761 mmHg 75%
    09:00 +20°C° 0 mm 2 mps 761 mmHg 68%
    10:00 +21°C° 0 mm 2 mps 761 mmHg 61%
    11:00 +24°C° 0 mm 2 mps 761 mmHg 55%
    12:00 +24°C° 0 mm 3 mps 761 mmHg 53%
    13:00 +23°C° 0 mm 4 mps 761 mmHg 51%
    14:00 +25°C° 0 mm 5 mps 761 mmHg 50%
    15:00 +23°C° 0 mm 4 mps 761 mmHg 51%
    16:00 +22°C° 0 mm 4 mps 761 mmHg 52%
    17:00 +21°C° 0 mm 4 mps 761 mmHg 53%
    18:00 +20°C° 0 mm 4 mps 761 mmHg 61%
    19:00 +19°C° 0 mm 3 mps 762 mmHg 68%
    20:00 +18°C° 0 mm 3 mps 762 mmHg 75%
    21:00 +17°C° 0 mm 3 mps 762 mmHg 77%
    22:00 +17°C° 0 mm 2 mps 763 mmHg 79%
    23:00 +16°C° 0 mm 2 mps 763 mmHg 80%

    22 October, Tuesday

    Time Temperature Precipitation Wind Pressure Humidity
    00:00 +16°C° 0 mm 2 mps 763 mmHg 80%
    01:00 +16°C° 0 mm 2 mps 763 mmHg 79%
    02:00 +15°C° 0 mm 2 mps 762 mmHg 79%
    03:00 +15°C° 0 mm 2 mps 763 mmHg 76%
    04:00 +15°C° 0 mm 1 mps 763 mmHg 72%
    05:00 +14°C° 0 mm 1 mps 763 mmHg 69%
    06:00 +16°C° 0 mm 1 mps 763 mmHg 64%
    07:00 +19°C° 0 mm 1 mps 763 mmHg 58%
    08:00 +20°C° 0 mm 1 mps 763 mmHg 52%
    09:00 +22°C° 0 mm 1 mps 763 mmHg 48%
    10:00 +24°C° 0 mm 1 mps 762 mmHg 43%
    11:00 +27°C° 0 mm 2 mps 762 mmHg 38%
    12:00 +27°C° 0 mm 3 mps 762 mmHg 40%
    13:00 +27°C° 0 mm 4 mps 761 mmHg 42%
    14:00 +27°C° 0 mm 4 mps 760 mmHg 44%
    15:00 +26°C° 0 mm 5 mps 760 mmHg 50%
    16:00 +25°C° 0 mm 5 mps 760 mmHg 57%
    17:00 +23°C° 0 mm 5 mps 760 mmHg 64%
    18:00 +21°C° 0 mm 5 mps 761 mmHg 70%
    19:00 +20°C° 0 mm 4 mps 761 mmHg 77%
    20:00 +19°C° 0 mm 4 mps 762 mmHg 83%
    21:00 +19°C° 0 mm 4 mps 762 mmHg 83%
    22:00 +18°C° 0 mm 4 mps 762 mmHg 82%
    23:00 +18°C° 0 mm 4 mps 762 mmHg 81%

    23 October, Wednesday

    Time Temperature Precipitation Wind Pressure Humidity
    00:00 +17°C° 0 mm 3 mps 762 mmHg 81%
    01:00 +17°C° 0 mm 3 mps 762 mmHg 82%
    02:00 +16°C° 0 mm 2 mps 762 mmHg 82%
    03:00 +16°C° 0 mm 2 mps 762 mmHg 83%
    04:00 +16°C° 0 mm 1 mps 762 mmHg 84%
    05:00 +15°C° 0 mm 1 mps 762 mmHg 86%
    06:00 +18°C° 0 mm 1 mps 762 mmHg 78%
    07:00 +19°C° 0 mm 1 mps 762 mmHg 71%
    08:00 +20°C° 0 mm 1 mps 763 mmHg 63%
    09:00 +21°C° 0 mm 2 mps 762 mmHg 59%
    10:00 +22°C° 0 mm 3 mps 762 mmHg 54%
    11:00 +23°C° 0 mm 4 mps 762 mmHg 49%
    12:00 +23°C° 0 mm 4 mps 762 mmHg 51%
    13:00 +23°C° 0 mm 5 mps 762 mmHg 52%
    14:00 +23°C° 0 mm 5 mps 761 mmHg 53%
    15:00 +22°C° 0 mm 5 mps 761 mmHg 55%
    16:00 +22°C° 0 mm 5 mps 761 mmHg 57%
    17:00 +21°C° 0 mm 5 mps 761 mmHg 59%
    18:00 +20°C° 0 mm 5 mps 762 mmHg 65%
    19:00 +19°C° 0 mm 5 mps 762 mmHg 71%
    20:00 +17°C° 0 mm 4 mps 763 mmHg 76%
    21:00 +17°C° 0 mm 4 mps 763 mmHg 79%
    22:00 +17°C° 0 mm 4 mps 763 mmHg 82%
    23:00 +15°C° 0 mm 4 mps 764 mmHg 85%
    Show more